| time (UTC) | temp F | wind direction | speed MPH | gust MPH | rain 1hr in | rain 24hr in | rain mn in | humidity % | barometer mb |
| 20260901103020 | 73 | 0.0 | 0.0 | 0.00 | 0.01 | 0.01 | 96 | 1015.5 | |
| 20260901101920 | 73 | 0.0 | 0.0 | 0.00 | 0.01 | 0.01 | 96 | 1015.5 | |
| 20260901100920 | 73 | 0.0 | 0.0 | 0.00 | 0.01 | 0.01 | 96 | 1015.5 | |
| 20260901095922 | 73 | 0.0 | 0.0 | 0.00 | 0.01 | 0.01 | 96 | 1015.1 | |
| 20260901094920 | 73 | 187 | 1.0 | 3.0 | 0.00 | 0.01 | 0.01 | 96 | 1015.1 |
| 20260901093920 | 74 | 164 | 0.0 | 2.0 | 0.00 | 0.01 | 0.01 | 96 | 1015.5 |
| 20260901092940 | 74 | 196 | 1.0 | 2.0 | 0.00 | 0.01 | 0.01 | 95 | 1015.5 |
| 20260901091940 | 74 | 182 | 1.0 | 2.0 | 0.00 | 0.01 | 0.01 | 95 | 1015.2 |
| 20260901090920 | 74 | 159 | 4.0 | 5.0 | 0.00 | 0.01 | 0.01 | 95 | 1015.5 |
| 20260901085921 | 74 | 159 | 5.0 | 7.0 | 0.00 | 0.01 | 0.01 | 95 | 1015.5 |
| 20260901084920 | 74 | 166 | 2.0 | 3.0 | 0.00 | 0.01 | 0.01 | 95 | 1015.5 |
| 20260901083920 | 74 | 227 | 2.0 | 2.0 | 0.00 | 0.01 | 0.01 | 95 | 1015.2 |
| 20260901082920 | 74 | 205 | 1.0 | 2.0 | 0.01 | 0.01 | 0.01 | 94 | 1015.2 |
| 20260901081920 | 74 | 169 | 3.0 | 5.0 | 0.01 | 0.01 | 0.01 | 94 | 1015.5 |
| 20260901080920 | 75 | 145 | 2.0 | 3.0 | 0.01 | 0.01 | 0.01 | 93 | 1015.5 |
| 20260901075920 | 75 | 201 | 2.0 | 4.0 | 0.01 | 0.01 | 0.01 | 92 | 1015.5 |
| 20260901074940 | 74 | 201 | 1.0 | 2.0 | 0.01 | 0.01 | 0.01 | 95 | 1015.8 |
| 20260901073920 | 74 | 162 | 0.0 | 2.0 | 0.01 | 0.01 | 0.01 | 95 | 1015.5 |
| 20260901072920 | 74 | 211 | 3.0 | 6.0 | 0.00 | 0.00 | 0.00 | 93 | 1015.9 |
| 20260901071920 | 74 | 240 | 3.0 | 5.0 | 0.00 | 0.00 | 0.00 | 93 | 1015.9 |
| 20260901070920 | 74 | 212 | 1.0 | 2.0 | 0.00 | 0.00 | 0.00 | 94 | 1015.6 |
| 20260901065920 | 74 | 236 | 3.0 | 4.0 | 0.00 | 0.00 | 0.00 | 94 | 1015.6 |
| 20260901064920 | 75 | 218 | 3.0 | 5.0 | 0.00 | 0.00 | 0.00 | 93 | 1015.9 |
| 20260901063920 | 75 | 233 | 1.0 | 2.0 | 0.00 | 0.00 | 0.00 | 92 | 1016.0 |
| 20260901062920 | 74 | 179 | 0.0 | 2.0 | 0.00 | 0.00 | 0.00 | 92 | 1015.9 |
| 20260901061940 | 74 | 0.0 | 0.0 | 0.00 | 0.00 | 0.00 | 92 | 1015.9 | |
| 20260901060920 | 74 | 178 | 2.0 | 2.0 | 0.00 | 0.00 | 0.00 | 91 | 1015.6 |
| 20260901055940 | 74 | 174 | 1.0 | 2.0 | 0.00 | 0.00 | 0.00 | 92 | 1016.3 |
| 20260901054920 | 74 | 0.0 | 0.0 | 0.00 | 0.00 | 0.00 | 91 | 1016.6 | |
| 20260901053920 | 73 | 150 | 2.0 | 2.0 | 0.00 | 0.00 | 0.00 | 92 | 1016.2 |
| 20260901052920 | 74 | 0.0 | 0.0 | 0.00 | 0.00 | 0.00 | 91 | 1016.6 | |
| 20260901051920 | 74 | 171 | 1.0 | 3.0 | 0.00 | 0.00 | 0.00 | 90 | 1016.6 |
| 20260901050920 | 74 | 193 | 1.0 | 2.0 | 0.00 | 0.00 | 0.00 | 90 | 1016.2 |
| 20260901045920 | 73 | 163 | 4.0 | 5.0 | 0.00 | 0.00 | 0.00 | 91 | 1016.5 |
| 20260901044932 | 73 | 109 | 1.0 | 2.0 | 0.00 | 0.00 | 0.00 | 94 | 1016.5 |
| 20260901043920 | 73 | 96 | 2.0 | 2.0 | 0.00 | 0.00 | 0.00 | 95 | 1016.8 |
| 20260901042920 | 73 | 0.0 | 0.0 | 0.00 | 0.00 | 0.00 | 93 | 1016.5 | |
| 20260901041920 | 73 | 0.0 | 0.0 | 0.00 | 0.00 | 0.00 | 94 | 1016.5 | |
| 20260901040920 | 73 | 0.0 | 0.0 | 0.00 | 0.00 | 0.00 | 95 | 1016.5 | |
| 20260901035940 | 73 | 0.0 | 0.0 | 0.00 | 0.00 | 0.00 | 96 | 1016.5 | |
| 20260901034920 | 73 | 0.0 | 0.0 | 0.00 | 0.01 | 0.00 | 95 | 1016.5 | |
| 20260901033920 | 73 | 0.0 | 0.0 | 0.00 | 0.02 | 0.00 | 95 | 1016.4 | |
| 20260901032920 | 72 | 0.0 | 0.0 | 0.00 | 0.05 | 0.00 | 97 | 1016.4 | |
| 20260901031920 | 72 | 0.0 | 0.0 | 0.00 | 0.05 | 0.00 | 98 | 1016.4 | |
| 20260901030920 | 72 | 0.0 | 0.0 | 0.00 | 0.05 | 0.00 | 98 | 1016.4 | |
| 20260901025932 | 72 | 0.0 | 0.0 | 0.00 | 0.05 | 0.00 | 98 | 1016.8 | |
| 20260901025000 | 72 | 0.0 | 0.0 | 0.00 | 0.05 | 0.00 | 99 | 1016.8 | |
| 20260901023922 | 72 | 0.0 | 0.0 | 0.00 | 0.05 | 0.00 | 99 | 1017.0 | |
| 20260901022920 | 72 | 0.0 | 0.0 | 0.00 | 0.05 | 0.00 | 98 | 1016.6 | |
| 20260901021920 | 72 | 0.0 | 0.0 | 0.00 | 0.05 | 0.00 | 97 | 1017.0 | |
| 20260901021000 | 72 | 0.0 | 0.0 | 0.00 | 0.05 | 0.00 | 97 | 1016.9 | |
| 20260901015920 | 73 | 0.0 | 0.0 | 0.00 | 0.05 | 0.00 | 96 | 1016.9 | |
| 20260901014920 | 73 | 0.0 | 0.0 | 0.00 | 0.05 | 0.00 | 94 | 1016.6 | |
| 20260901013920 | 74 | 0.0 | 0.0 | 0.00 | 0.05 | 0.00 | 89 | 1016.9 | |
| 20260901012920 | 75 | 359 | 1.0 | 2.0 | 0.00 | 0.05 | 0.00 | 89 | 1016.3 |
| 20260901011920 | 74 | 0.0 | 0.0 | 0.00 | 0.05 | 0.00 | 88 | 1015.9 | |
| 20260901010940 | 73 | 108 | 0.0 | 2.0 | 0.00 | 0.05 | 0.00 | 95 | 1015.9 |
| 20260901010000 | 74 | 0.0 | 0.0 | 0.00 | 0.05 | 0.00 | 95 | 1016.6 | |
| 20260901004940 | 74 | 0.0 | 0.0 | 0.00 | 0.07 | 0.00 | 93 | 1016.2 | |
| 20260901003921 | 73 | 0.0 | 0.0 | 0.00 | 0.07 | 0.00 | 98 | 1016.2 | |
| 20260901002920 | 73 | 0.0 | 0.0 | 0.00 | 0.07 | 0.00 | 97 | 1016.5 | |
| 20260901001920 | 73 | 0.0 | 0.0 | 0.00 | 0.08 | 0.00 | 97 | 1016.9 | |
| 20260901000920 | 74 | 0.0 | 0.0 | 0.00 | 0.09 | 0.00 | 96 | 1016.9 | |
| 20260901000001 | 74 | 0.0 | 0.0 | 0.00 | 0.10 | 0.00 | 95 | 1016.9 | |
| 20260831234920 | 74 | 0.0 | 0.0 | 0.00 | 0.10 | 0.00 | 95 | 1016.9 | |
| 20260831233920 | 75 | 0.0 | 0.0 | 0.00 | 0.10 | 0.00 | 93 | 1016.5 | |
| 20260831232920 | 76 | 0.0 | 0.0 | 0.00 | 0.11 | 0.00 | 90 | 1016.6 | |
| 20260831231920 | 76 | 68 | 2.0 | 3.0 | 0.00 | 0.12 | 0.00 | 89 | 1016.6 |
| 20260831230920 | 76 | 19 | 2.0 | 2.0 | 0.00 | 0.14 | 0.00 | 89 | 1016.6 |
| 20260831225920 | 77 | 0.0 | 0.0 | 0.00 | 0.14 | 0.00 | 87 | 1016.6 | |
| 20260831224920 | 78 | 354 | 2.0 | 3.0 | 0.00 | 0.14 | 0.00 | 84 | 1016.7 |
| 20260831223920 | 78 | 0.0 | 0.0 | 0.00 | 0.14 | 0.00 | 86 | 1016.3 | |
| 20260831223021 | 79 | 294 | 1.0 | 2.0 | 0.00 | 0.14 | 0.00 | 82 | 1016.3 |
| 20260831221920 | 79 | 140 | 2.0 | 2.0 | 0.00 | 0.17 | 0.00 | 86 | 1016.3 |
| 20260831220920 | 79 | 0.0 | 0.0 | 0.00 | 0.17 | 0.00 | 79 | 1016.0 | |
| 20260831215920 | 78 | 211 | 4.0 | 5.0 | 0.00 | 0.17 | 0.00 | 81 | 1016.3 |
| 20260831214920 | 79 | 274 | 3.0 | 4.0 | 0.00 | 0.17 | 0.00 | 78 | 1017.0 |
| 20260831213921 | 80 | 288 | 4.0 | 6.0 | 0.00 | 0.17 | 0.00 | 79 | 1017.3 |
| 20260831212920 | 80 | 284 | 2.0 | 4.0 | 0.00 | 0.17 | 0.00 | 79 | 1017.3 |
| 20260831211920 | 80 | 304 | 5.0 | 7.0 | 0.00 | 0.17 | 0.00 | 78 | 1017.3 |
| 20260831210920 | 81 | 304 | 4.0 | 5.0 | 0.00 | 0.17 | 0.00 | 75 | 1017.7 |
| 20260831205920 | 81 | 305 | 4.0 | 5.0 | 0.00 | 0.17 | 0.00 | 75 | 1017.4 |
| 20260831204920 | 81 | 274 | 4.0 | 6.0 | 0.00 | 0.17 | 0.00 | 73 | 1017.4 |
| 20260831203920 | 81 | 298 | 4.0 | 5.0 | 0.00 | 0.17 | 0.00 | 73 | 1017.4 |
| 20260831202940 | 81 | 282 | 3.0 | 4.0 | 0.00 | 0.17 | 0.00 | 75 | 1017.7 |
| 20260831201920 | 81 | 276 | 5.0 | 7.0 | 0.00 | 0.17 | 0.00 | 72 | 1017.7 |
| 20260831200920 | 81 | 279 | 3.0 | 4.0 | 0.00 | 0.17 | 0.00 | 76 | 1017.7 |
| 20260831195920 | 80 | 300 | 5.0 | 5.0 | 0.00 | 0.17 | 0.00 | 75 | 1017.7 |
| 20260831194920 | 79 | 312 | 2.0 | 2.0 | 0.00 | 0.17 | 0.00 | 81 | 1017.7 |
| 20260831193920 | 79 | 312 | 2.0 | 3.0 | 0.00 | 0.17 | 0.00 | 81 | 1017.7 |
| 20260831192920 | 80 | 281 | 3.0 | 4.0 | 0.00 | 0.17 | 0.00 | 75 | 1017.7 |
| 20260831191921 | 80 | 271 | 5.0 | 6.0 | 0.00 | 0.17 | 0.00 | 74 | 1017.7 |
| 20260831190920 | 80 | 295 | 9.0 | 9.0 | 0.00 | 0.17 | 0.00 | 72 | 1018.0 |
| 20260831185940 | 81 | 286 | 5.0 | 6.0 | 0.00 | 0.17 | 0.00 | 72 | 1018.0 |
| 20260831184920 | 82 | 289 | 6.0 | 7.0 | 0.00 | 0.17 | 0.00 | 72 | 1018.1 |
| 20260831183920 | 82 | 239 | 7.0 | 11.0 | 0.00 | 0.17 | 0.00 | 66 | 1018.0 |
| 20260831182920 | 82 | 290 | 6.0 | 8.0 | 0.00 | 0.17 | 0.00 | 67 | 1018.0 |
| 20260831181920 | 83 | 306 | 11.0 | 13.0 | 0.00 | 0.17 | 0.00 | 70 | 1018.1 |
| 20260831181000 | 84 | 297 | 6.0 | 7.0 | 0.00 | 0.17 | 0.00 | 69 | 1018.2 |
| 20260831175920 | 85 | 281 | 4.0 | 5.0 | 0.00 | 0.17 | 0.00 | 69 | 1018.5 |
| 20260831174921 | 85 | 234 | 2.0 | 2.0 | 0.00 | 0.17 | 0.00 | 70 | 1018.2 |
| 20260831173920 | 84 | 264 | 1.0 | 2.0 | 0.00 | 0.17 | 0.00 | 77 | 1018.2 |
| 20260831172920 | 82 | 182 | 3.0 | 5.0 | 0.00 | 0.17 | 0.00 | 76 | 1018.1 |
| 20260831171920 | 82 | 157 | 3.0 | 4.0 | 0.00 | 0.17 | 0.00 | 78 | 1018.1 |
| 20260831170920 | 83 | 239 | 2.0 | 3.0 | 0.00 | 0.18 | 0.00 | 76 | 1018.1 |
| 20260831165920 | 82 | 210 | 2.0 | 4.0 | 0.00 | 0.18 | 0.00 | 75 | 1018.1 |
| 20260831164920 | 82 | 0.0 | 0.0 | 0.00 | 0.18 | 0.00 | 76 | 1018.1 | |
| 20260831163920 | 81 | 147 | 4.0 | 5.0 | 0.00 | 0.18 | 0.00 | 78 | 1018.4 |
| 20260831162921 | 81 | 179 | 3.0 | 4.0 | 0.00 | 0.19 | 0.00 | 76 | 1018.4 |
| 20260831161920 | 81 | 171 | 1.0 | 2.0 | 0.00 | 0.19 | 0.00 | 79 | 1018.4 |
| 20260831160920 | 80 | 162 | 2.0 | 2.0 | 0.00 | 0.20 | 0.00 | 78 | 1018.4 |
| 20260831155920 | 80 | 230 | 3.0 | 5.0 | 0.00 | 0.21 | 0.00 | 77 | 1018.7 |
| 20260831154940 | 80 | 194 | 4.0 | 6.0 | 0.00 | 0.21 | 0.00 | 78 | 1018.4 |
| 20260831153920 | 80 | 205 | 3.0 | 4.0 | 0.00 | 0.22 | 0.00 | 79 | 1018.7 |
| 20260831152920 | 79 | 227 | 2.0 | 2.0 | 0.00 | 0.22 | 0.00 | 81 | 1018.3 |
| 20260831151920 | 79 | 181 | 3.0 | 4.0 | 0.00 | 0.22 | 0.00 | 83 | 1018.3 |
| 20260831150920 | 78 | 231 | 3.0 | 5.0 | 0.00 | 0.22 | 0.00 | 81 | 1018.7 |
| 20260831150000 | 77 | 186 | 0.0 | 2.0 | 0.00 | 0.22 | 0.00 | 83 | 1018.6 |
| 20260831144920 | 77 | 195 | 4.0 | 7.0 | 0.00 | 0.22 | 0.00 | 83 | 1018.3 |
| 20260831143924 | 77 | 205 | 2.0 | 2.0 | 0.00 | 0.22 | 0.00 | 85 | 1018.6 |
| 20260831142920 | 77 | 199 | 5.0 | 7.0 | 0.00 | 0.22 | 0.00 | 85 | 1018.3 |
| 20260831141920 | 75 | 175 | 5.0 | 7.0 | 0.00 | 0.22 | 0.00 | 88 | 1018.2 |
| 20260831140920 | 74 | 181 | 2.0 | 2.0 | 0.00 | 0.22 | 0.00 | 90 | 1018.2 |
| 20260831135920 | 75 | 203 | 5.0 | 6.0 | 0.00 | 0.22 | 0.00 | 87 | 1018.3 |
| 20260831134920 | 73 | 180 | 4.0 | 6.0 | 0.00 | 0.22 | 0.00 | 90 | 1018.2 |
| 20260831133920 | 73 | 178 | 4.0 | 6.0 | 0.00 | 0.22 | 0.00 | 91 | 1018.2 |
| 20260831132919 | 72 | 179 | 3.0 | 5.0 | 0.00 | 0.22 | 0.00 | 92 | 1018.5 |
| 20260831131920 | 72 | 151 | 5.0 | 7.0 | 0.00 | 0.22 | 0.00 | 92 | 1018.5 |
| 20260831130932 | 71 | 163 | 3.0 | 5.0 | 0.00 | 0.22 | 0.00 | 94 | 1018.5 |
| 20260831125920 | 71 | 176 | 4.0 | 7.0 | 0.00 | 0.22 | 0.00 | 93 | 1018.5 |
| 20260831124919 | 70 | 203 | 2.0 | 2.0 | 0.00 | 0.22 | 0.00 | 95 | 1018.4 |
| 20260831123940 | 70 | 174 | 1.0 | 2.0 | 0.00 | 0.22 | 0.00 | 94 | 1018.7 |
| 20260831122920 | 70 | 164 | 4.0 | 4.0 | 0.00 | 0.22 | 0.00 | 95 | 1018.5 |
| 20260831121920 | 69 | 167 | 3.0 | 6.0 | 0.00 | 0.22 | 0.00 | 94 | 1018.4 |
| 20260831120940 | 69 | 147 | 5.0 | 7.0 | 0.00 | 0.22 | 0.00 | 95 | 1018.1 |
| 20260831115919 | 69 | 141 | 4.0 | 5.0 | 0.00 | 0.22 | 0.00 | 95 | 1018.4 |
| 20260831114940 | 69 | 132 | 3.0 | 5.0 | 0.00 | 0.22 | 0.00 | 96 | 1018.4 |
| 20260831113932 | 69 | 155 | 5.0 | 7.0 | 0.00 | 0.22 | 0.00 | 96 | 1018.1 |
| 20260831112939 | 69 | 156 | 3.0 | 5.0 | 0.00 | 0.22 | 0.00 | 96 | 1018.4 |
| 20260831111920 | 68 | 128 | 4.0 | 5.0 | 0.00 | 0.22 | 0.00 | 98 | 1018.4 |
| 20260831110920 | 68 | 150 | 3.0 | 4.0 | 0.00 | 0.22 | 0.00 | 96 | 1018.4 |
| 20260831105920 | 68 | 156 | 3.0 | 5.0 | 0.00 | 0.22 | 0.00 | 96 | 1018.4 |
| 20260831104920 | 68 | 129 | 3.0 | 5.0 | 0.00 | 0.22 | 0.00 | 97 | 1018.1 |
| 20260831103919 | 68 | 140 | 4.0 | 6.0 | 0.00 | 0.22 | 0.00 | 96 | 1018.1 |